Cloud_Cover
80 80 76 68 48 44 36 36 32 24 20 12 8 8 0 0 8 8 8 12 12 20 24 32 32 32 32 32 36 44 44 36 32 32 32 32 24 24 24 24 24 20 20 12 12 8 8 8 8 8 0 0 0 0 0 0 0 0 0 0 0 0 0 0 0 0 0 20 20
68 64 56 44 36 36 32 32 24 12 8 8 8 8 8 8 8 12 20 20 24 32 32 32 32 32 36 36 44 36 36 32 32 24 24 24 24 24 24 24 20 20 12 8 8 8 8 0 0 0 0 0 0 0 0 0 0 0 0 0 0 0 0 0 0 12 32 44 32
48 44 36 32 24 24 20 20 12 8 8 8 8 8 8 12 24 32 36 36 36 36 36 36 32 36 36 36 36 32 32 24 24 24 24 24 24 24 20 20 12 12 8 8 0 0 0 0 0 0 0 0 0 0 0 0 0 0 0 0 0 0 0 0 0 20 44 56 36
24 24 24 24 24 20 12 12 8 12 20 20 12 20 32 36 36 44 44 36 36 36 32 32 32 32 32 32 32 24 24 24 24 24 24 24 20 20 12 12 8 8 8 0 0 0 0 8 8 8 0 0 0 0 8 12 8 0 0 8 0 0 0 20 20 32 44 48 44
36 32 32 32 32 24 24 20 24 24 32 36 36 44 44 44 36 36 36 36 32 32 32 24 32 32 32 24 24 24 24 24 24 20 20 20 12 8 8 8 8 8 8 0 0 0 0 0 0 0 0 0 0 8 12 24 12 8 0 0 12 32 44 36 24 24 32 44 36
48 48 48 44 44 44 44 44 44 44 44 44 44 44 36 36 36 32 32 24 24 24 24 32 32 32 24 24 24 24 24 20 20 20 12 12 8 8 8 12 12 8 0 8 8 0 0 0 0 0 0 0 0 8 20 32 24 12 12 36 56 64 48 44 24 12 12 36 32
48 48 48 48 48 48 44 44 44 44 36 36 36 36 36 32 32 24 24 24 24 24 24 32 32 32 24 24 24 24 20 12 12 8 8 8 8 8 12 12 8 8 8 8 0 0 0 0 0 0 0 8 8 8 20 36 32 20 24 56 56 56 48 44 32 20 12 36 36
44 44 44 44 36 36 36 36 36 36 36 36 32 32 24 24 24 24 24 24 24 32 36 36 32 24 24 24 20 20 12 8 8 8 8 12 12 12 12 8 8 0 8 0 0 0 8 8 8 8 8 8 8 12 24 36 24 20 24 44 48 44 36 32 20 12 12 36 44
36 36 36 36 36 36 36 36 32 32 24 24 24 24 24 20 24 24 24 24 32 36 36 36 24 24 20 12 12 8 8 8 12 20 20 12 8 8 8 8 8 8 8 8 0 0 0 0 0 8 8 8 8 12 24 44 24 24 24 8 32 36 32 20 12 8 12 44 36
32 32 32 32 24 24 24 32 24 24 24 20 24 24 24 24 32 32 36 36 36 36 32 32 20 12 12 8 8 0 8 20 20 20 12 12 8 12 12 12 8 8 8 0 0 0 0 0 0 0 0 0 0 8 24 56 44 36 32 20 24 24 20 12 12 24 32 32 32
24 32 32 32 32 32 32 32 24 20 20 20 20 20 24 24 32 32 32 32 32 32 24 20 12 8 0 0 0 0 8 12 12 12 12 12 20 24 24 20 12 12 8 8 0 0 0 0 0 0 0 0 0 0 24 68 68 48 36 32 24 24 24 44 36 32 24 20 20
36 36 36 36 36 36 32 32 24 20 20 20 20 24 24 24 32 32 32 32 24 20 20 12 0 0 0 0 0 8 8 8 12 24 32 32 24 24 20 24 20 20 12 8 0 0 0 0 0 0 0 0 0 20 48 76 68 48 32 24 24 24 32 24 24 20 20 20 24
44 44 36 36 36 32 32 24 20 20 12 20 20 24 24 24 24 24 24 24 20 12 8 0 0 0 0 0 0 0 8 8 32 32 24 20 20 12 20 24 32 24 12 12 8 0 0 0 0 0 0 0 0 32 68 80 56 44 32 20 24 24 12 12 20 20 12 24 32
44 44 36 36 32 32 24 20 20 12 12 20 20 20 24 24 24 20 20 12 8 8 0 8 0 0 0 8 8 8 8 20 20 20 12 20 24 24 32 32 20 12 12 8 8 8 0 0 0 0 0 0 12 44 76 76 64 44 32 24 24 20 12 20 12 8 20 44 56
36 36 32 32 24 24 20 20 12 12 12 12 20 20 20 20 20 12 12 8 0 0 8 8 8 8 8 8 8 8 12 12 12 20 24 36 36 36 36 32 20 12 12 12 8 8 0 0 0 0 8 12 48 68 68 56 48 44 44 36 32 24 24 20 20 32 64 92 92
32 32 24 24 20 20 12 12 12 12 12 12 12 12 12 12 12 8 8 8 0 0 8 8 8 8 8 8 8 12 12 12 12 24 36 64 64 56 44 24 24 20 20 12 8 8 8 12 12 20 32 56 76 76 64 48 44 44 48 56 48 44 44 44 56 68 88 92 80
20 20 20 20 12 12 8 8 8 8 12 12 12 12 12 12 12 8 8 0 0 0 0 0 0 8 8 8 12 12 12 12 20 36 64 80 80 64 36 20 20 20 20 12 12 12 24 36 44 48 64 80 80 76 64 56 48 56 64 64 56 56 64 76 92 92 92 88 80
12 12 12 12 8 8 8 8 8 8 8 8 12 12 12 12 12 8 8 8 8 8 8 8 8 8 8 12 12 12 12 20 32 56 80 88 76 48 24 24 20 20 20 12 20 32 48 64 68 76 76 80 88 76 64 48 48 56 68 76 80 80 88 92 92 92 92 88 88
12 8 8 8 8 8 8 8 8 8 8 8 8 12 12 12 12 12 12 12 12 8 8 8 8 8 8 8 12 12 12 24 44 68 80 88 56 32 20 24 20 20 20 12 20 44 76 76 80 80 80 88 88 88 76 68 76 80 88 92 92 92 92 92 92 92 92 92 92
8 8 8 8 8 8 8 12 12 12 12 12 12 12 20 20 20 20 24 20 12 12 12 20 20 20 20 12 12 12 12 24 36 64 76 68 48 36 32 32 20 20 20 20 36 64 80 80 80 80 88 92 92 92 92 92 92 92 92 92 92 92 92 92 92 92 92 92 92
8 8 8 8 8 12 12 20 20 20 20 20 24 24 24 24 20 24 32 24 20 20 24 24 32 32 32 24 20 20 20 24 36 48 64 64 68 64 56 56 56 64 56 48 64 80 88 92 88 92 92 92 92 92 92 92 92 92 92 92 92 92 92 92 92 92 92 92 92
12 12 12 20 20 20 24 24 24 32 32 32 24 24 24 20 12 12 20 24 20 20 20 32 36 44 36 36 32 32 36 48 56 64 68 76 80 76 76 88 88 92 92 88 88 92 92 92 92 92 92 92 92 92 92 92 92 92 92 92 92 92 92 92 92 92 92 92 92
20 24 24 24 32 32 32 32 32 32 32 24 24 24 24 24 20 12 12 12 8 12 12 20 48 56 48 44 44 48 64 64 76 76 68 80 88 88 92 92 92 92 92 92 92 92 92 92 92 92 92 92 92 92 92 92 92 92 92 88 92 92 92 92 92 92 92 92 92
32 32 36 36 36 36 32 32 32 24 24 24 24 20 24 36 32 32 24 20 8 12 24 32 56 64 64 64 76 88 88 88 92 92 92 92 92 92 92 92 92 92 92 92 92 92 92 92 92 92 92 92 92 92 92 92 92 92 92 92 92 92 92 92 92 92 92 92 92
36 36 36 32 32 24 24 24 24 24 24 24 20 20 24 56 56 48 44 32 32 44 64 76 76 76 68 68 80 92 92 92 92 100 92 92 92 92 92 92 92 92 92 92 92 92 92 92 92 92 92 92 92 92 92 92 88 88 88 88 92 92 92 92 92 92 92 88 88
32 24 24 24 24 20 20 20 20 20 20 20 32 44 48 68 76 76 76 80 88 88 92 92 92 88 76 44 80 92 92 92 92 92 92 92 92 92 92 92 92 92 92 92 92 92 92 92 92 92 92 92 92 88 88 88 80 80 88 80 80 88 92 92 92 92 88 76 80
20 20 20 20 20 20 20 20 20 36 56 64 64 76 88 92 92 92 92 92 92 92 92 92 92 92 92 92 92 92 92 92 92 88 80 92 92 92 92 92 92 92 92 92 92 92 92 92 92 92 92 92 92 88 88 80 80 80 80 80 76 80 92 92 92 92 88 56 56
12 12 12 12 24 32 36 44 80 92 92 92 92 92 92 92 92 88 80 80 80 88 88 88 88 92 92 92 92 92 92 92 92 88 88 92 92 92 92 92 92 92 92 88 92 92 92 92 92 92 92 92 92 92 92 88 88 80 80 76 88 92 92 92 92 76 56 44 44
56 68 68 76 88 92 92 92 92 88 80 80 80 76 68 68 68 76 76 80 88 80 76 88 92 92 92 92 92 92 92 92 92 92 92 92 92 92 92 92 92 88 88 92 92 92 92 92 92 92 92 92 92 92 92 92 88 80 76 68 88 92 92 92 68 64 64 64 64
48 68 76 64 64 64 56 56 64 64 68 80 88 92 92 92 92 92 92 92 92 92 92 92 92 92 92 92 92 92 92 92 92 92 92 92 92 92 92 92 88 88 88 88 88 88 88 92 92 92 92 92 92 92 92 92 88 80 80 92 92 92 88 64 76 76 76 64 68
20 24 24 32 48 56 48 56 68 76 76 76 76 88 92 92 92 80 64 48 44 68 92 92 92 92 92 92 92 92 92 92 92 92 92 92 92 92 92 92 92 92 88 88 88 88 88 92 92 92 92 92 92 92 92 92 92 92 92 92 92 80 68 68 76 80 76 68 76
0 8 12 20 20 12 12 8 24 32 32 32 44 48 48 44 36 36 36 32 80 92 92 100 92 92 92 92 92 92 92 92 92 92 92 92 92 92 92 92 88 92 92 92 80 80 88 92 92 92 92 92 92 92 92 92 92 92 92 92 80 76 76 76 80 80 80 80 76
8 8 8 0 0 8 8 8 8 8 8 12 20 20 24 32 32 32 32 32 76 92 92 92 92 92 92 92 92 92 92 92 92 92 92 92 92 92 92 92 92 92 92 92 88 92 92 92 92 92 92 92 92 92 88 88 80 80 80 92 80 76 76 80 80 80 80 80 68
8 8 8 8 8 8 8 8 12 12 8 12 20 24 32 44 76 76 64 44 80 92 92 92 92 92 92 92 92 92 92 88 88 88 92 92 92 92 92 92 92 92 92 92 92 92 92 92 92 92 92 92 92 92 88 88 80 80 80 80 76 76 80 80 80 80 76 68 64
8 8 8 8 8 8 8 12 24 20 8 8 12 24 56 92 92 88 92 92 92 92 92 92 92 92 92 92 92 92 92 92 92 92 92 92 92 92 92 88 88 88 92 92 92 92 92 92 92 92 92 92 92 92 92 80 88 80 76 76 80 80 80 80 80 68 64 56 64
8 8 8 0 0 8 12 24 24 12 8 8 12 36 68 92 92 88 80 92 92 92 92 92 92 92 92 92 92 92 92 92 92 92 92 92 88 88 88 88 88 88 92 92 92 92 92 92 92 92 92 92 92 88 80 76 76 76 76 76 80 80 76 76 76 68 68 68 64
0 0 0 0 0 8 20 44 24 12 8 8 20 56 92 92 88 68 64 92 92 92 92 88 88 92 92 92 92 92 92 92 92 92 92 92 92 92 88 80 80 88 92 92 92 92 92 92 92 92 92 92 92 92 88 88 88 88 80 80 88 88 80 80 80 76 68 68 68
0 0 0 0 0 0 12 36 12 8 12 32 44 68 92 88 68 68 80 92 92 92 92 92 92 92 92 92 92 92 92 92 92 92 92 92 88 88 88 88 76 76 88 92 92 92 92 92 92 92 92 92 92 92 92 92 92 92 92 92 92 88 88 88 80 76 76 88 80
0 0 0 0 0 0 8 32 20 12 32 68 64 76 88 80 80 88 92 92 92 92 92 92 92 92 92 92 92 92 92 92 92 92 92 88 92 92 88 92 80 88 92 92 92 92 92 92 92 92 92 92 92 92 92 92 92 92 88 80 80 88 88 80 88 88 88 92 92
0 0 0 0 0 0 8 20 32 36 44 36 44 56 68 88 92 92 92 92 92 92 92 92 92 92 92 92 92 92 92 92 92 92 92 92 92 92 92 88 88 92 92 92 92 92 92 92 92 92 92 92 92 92 88 80 88 80 76 80 80 80 88 88 88 92 92 92 92
0 0 0 0 0 12 32 44 68 64 44 24 24 36 64 88 92 92 92 92 92 92 92 92 92 92 92 92 92 92 92 92 92 92 92 92 92 92 92 92 88 92 92 92 92 92 92 92 92 92 92 92 92 88 80 76 80 80 80 88 88 88 88 92 92 92 92 92 92